Time,TemperatureF,DewpointF,PressureIn,WindDirection,WindDirectionDegrees,WindSpeedMPH,WindSpeedGustMPH,Humidity,HourlyPrecipIn,Conditions,Clouds,dailyrainin,SoftwareType,DateUTC
2013-05-19 00:00:00,60.4,41.7,30.15,NNE,24,0.0,7.0,50,0.00,,,0.00,Wunderground v.1.13,2013-05-19 07:00:00,
2013-05-19 00:10:00,60.2,41.5,30.15,NNE,32,0.0,7.0,50,0.00,,,0.00,Wunderground v.1.13,2013-05-19 07:10:00,
2013-05-19 00:20:00,60.1,42.4,30.15,NNE,32,0.0,7.0,52,0.00,,,0.00,Wunderground v.1.13,2013-05-19 07:20:00,
2013-05-19 00:25:00,59.8,42.6,30.15,NE,39,0.0,7.0,53,0.00,,,0.00,Wunderground v.1.13,2013-05-19 07:25:00,
2013-05-19 00:35:00,59.5,42.3,30.15,NE,51,0.0,7.0,53,0.00,,,0.00,Wunderground v.1.13,2013-05-19 07:35:00,
2013-05-19 00:45:00,59.2,42.6,30.15,ENE,71,0.0,7.0,54,0.00,,,0.00,Wunderground v.1.13,2013-05-19 07:45:00,
2013-05-19 00:50:00,58.9,42.8,30.15,ENE,72,0.0,7.0,55,0.00,,,0.00,Wunderground v.1.13,2013-05-19 07:50:00,
2013-05-19 01:00:00,58.6,42.9,30.15,NE,51,0.0,7.0,56,0.00,,,0.00,Wunderground v.1.13,2013-05-19 08:00:00,
2013-05-19 01:05:00,58.4,42.8,30.16,NNE,31,0.0,0.0,56,0.00,,,0.00,Wunderground v.1.13,2013-05-19 08:05:00,
2013-05-19 01:15:00,58.1,42.9,30.15,NE,55,0.0,0.0,57,0.00,,,0.00,Wunderground v.1.13,2013-05-19 08:15:00,
2013-05-19 01:20:00,58.0,42.8,30.15,ENE,61,0.0,0.0,57,0.00,,,0.00,Wunderground v.1.13,2013-05-19 08:20:00,
2013-05-19 01:30:00,57.5,42.8,30.15,ENE,74,0.0,0.0,58,0.00,,,0.00,Wunderground v.1.13,2013-05-19 08:30:00,
2013-05-19 01:35:00,57.3,42.6,30.14,ENE,70,0.0,0.0,58,0.00,,,0.00,Wunderground v.1.13,2013-05-19 08:35:00,
2013-05-19 01:44:00,57.0,42.8,30.15,ENE,61,0.0,0.0,59,0.00,,,0.00,Wunderground v.1.13,2013-05-19 08:44:00,
2013-05-19 01:49:00,56.7,42.5,30.14,ENE,62,0.0,3.0,59,0.00,,,0.00,Wunderground v.1.13,2013-05-19 08:49:00,
2013-05-19 01:55:00,56.6,42.4,30.15,ENE,66,0.0,3.0,59,0.00,,,0.00,Wunderground v.1.13,2013-05-19 08:55:00,
2013-05-19 02:00:00,56.6,42.4,30.15,ENE,72,0.0,3.0,59,0.00,,,0.00,Wunderground v.1.13,2013-05-19 09:00:00,
2013-05-19 02:10:00,56.6,42.4,30.14,ENE,72,1.0,1.0,59,0.00,,,0.00,Wunderground v.1.13,2013-05-19 09:10:00,
2013-05-19 02:15:00,56.6,42.4,30.14,ENE,74,1.0,1.0,59,0.00,,,0.00,Wunderground v.1.13,2013-05-19 09:15:00,
2013-05-19 02:25:00,56.7,42.1,30.14,ENE,74,0.0,3.0,58,0.00,,,0.00,Wunderground v.1.13,2013-05-19 09:25:00,
2013-05-19 02:30:00,56.9,42.3,30.14,ENE,71,1.0,1.0,58,0.00,,,0.00,Wunderground v.1.13,2013-05-19 09:30:00,
2013-05-19 02:39:00,57.0,41.9,30.14,ENE,70,0.0,3.0,57,0.00,,,0.00,Wunderground v.1.13,2013-05-19 09:39:00,
2013-05-19 02:45:00,57.0,41.9,30.13,ENE,77,1.0,1.0,57,0.00,,,0.00,Wunderground v.1.13,2013-05-19 09:45:00,
2013-05-19 02:50:00,57.0,41.9,30.13,East,85,2.0,3.0,57,0.00,,,0.00,Wunderground v.1.13,2013-05-19 09:50:00,
2013-05-19 03:00:00,56.7,42.1,30.13,ENE,73,1.0,1.0,58,0.00,,,0.00,Wunderground v.1.13,2013-05-19 10:00:00,
2013-05-19 03:10:00,56.5,41.9,30.14,ENE,77,2.0,3.0,58,0.00,,,0.00,Wunderground v.1.13,2013-05-19 10:10:00,
2013-05-19 03:20:00,56.2,42.1,30.14,ENE,78,2.0,3.0,59,0.00,,,0.00,Wunderground v.1.13,2013-05-19 10:20:00,
2013-05-19 03:30:00,55.7,42.0,30.14,ENE,77,3.0,3.0,60,0.00,,,0.00,Wunderground v.1.13,2013-05-19 10:30:00,
2013-05-19 03:40:00,55.7,42.0,30.14,ENE,78,3.0,4.0,60,0.00,,,0.00,Wunderground v.1.13,2013-05-19 10:40:00,
2013-05-19 03:45:00,55.6,41.9,30.14,ENE,62,2.0,3.0,60,0.00,,,0.00,Wunderground v.1.13,2013-05-19 10:45:00,
2013-05-19 03:55:00,55.6,41.9,30.14,East,80,3.0,3.0,60,0.00,,,0.00,Wunderground v.1.13,2013-05-19 10:55:00,
2013-05-19 04:00:00,55.4,41.7,30.14,East,82,3.0,3.0,60,0.00,,,0.00,Wunderground v.1.13,2013-05-19 11:00:00,
2013-05-19 04:10:00,55.0,41.8,30.15,ENE,71,2.0,3.0,61,0.00,,,0.00,Wunderground v.1.13,2013-05-19 11:10:00,
2013-05-19 04:15:00,55.0,41.8,30.15,ENE,65,2.0,2.0,61,0.00,,,0.00,Wunderground v.1.13,2013-05-19 11:15:00,
2013-05-19 04:25:00,55.0,41.4,30.14,ENE,70,2.0,3.0,60,0.00,,,0.00,Wunderground v.1.13,2013-05-19 11:25:00,
2013-05-19 04:30:00,55.0,42.2,30.14,East,79,2.0,3.0,62,0.00,,,0.00,Wunderground v.1.13,2013-05-19 11:30:00,
2013-05-19 04:35:00,54.8,41.6,30.14,ENE,76,2.0,3.0,61,0.00,,,0.00,Wunderground v.1.13,2013-05-19 11:35:00,
2013-05-19 04:45:00,54.5,41.7,30.14,East,82,2.0,3.0,62,0.00,,,0.00,Wunderground v.1.13,2013-05-19 11:45:00,
2013-05-19 04:55:00,54.2,41.5,30.15,ENE,75,3.0,3.0,62,0.00,,,0.00,Wunderground v.1.13,2013-05-19 11:55:00,
2013-05-19 05:05:00,54.2,41.5,30.15,NE,43,2.0,2.0,62,0.00,,,0.00,Wunderground v.1.13,2013-05-19 12:05:00,
2013-05-19 05:10:00,54.2,41.5,30.15,East,79,3.0,5.0,62,0.00,,,0.00,Wunderground v.1.13,2013-05-19 12:10:00,
2013-05-19 05:20:00,53.9,41.6,30.15,ENE,71,5.0,6.0,63,0.00,,,0.00,Wunderground v.1.13,2013-05-19 12:20:00,
2013-05-19 05:30:00,53.8,41.5,30.15,East,88,5.0,5.0,63,0.00,,,0.00,Wunderground v.1.13,2013-05-19 12:30:00,
2013-05-19 05:35:00,54.1,41.8,30.15,ENE,67,4.0,4.0,63,0.00,,,0.00,Wunderground v.1.13,2013-05-19 12:35:00,
2013-05-19 05:45:00,54.5,40.9,30.15,ENE,71,3.0,4.0,60,0.00,,,0.00,Wunderground v.1.13,2013-05-19 12:45:00,
2013-05-19 05:50:00,54.7,40.6,30.15,ENE,76,4.0,4.0,59,0.00,,,0.00,Wunderground v.1.13,2013-05-19 12:50:00,
2013-05-19 06:00:00,55.1,41.0,30.14,ENE,77,5.0,5.0,59,0.00,,,0.00,Wunderground v.1.13,2013-05-19 13:00:00,
2013-05-19 06:10:00,55.4,40.9,30.15,ENE,78,4.0,7.0,58,0.00,,,0.00,Wunderground v.1.13,2013-05-19 13:10:00,
2013-05-19 06:15:00,55.9,40.9,30.15,East,85,4.0,4.0,57,0.00,,,0.00,Wunderground v.1.13,2013-05-19 13:15:00,
2013-05-19 06:25:00,56.7,41.2,30.16,East,92,4.0,4.0,56,0.00,,,0.00,Wunderground v.1.13,2013-05-19 13:25:00,
2013-05-19 06:30:00,57.0,41.0,30.15,East,98,4.0,5.0,55,0.00,,,0.00,Wunderground v.1.13,2013-05-19 13:30:00,
2013-05-19 06:40:00,57.6,41.1,30.16,East,92,5.0,6.0,54,0.00,,,0.00,Wunderground v.1.13,2013-05-19 13:40:00,
2013-05-19 06:50:00,58.4,41.8,30.16,ENE,69,5.0,5.0,54,0.00,,,0.00,Wunderground v.1.13,2013-05-19 13:50:00,
2013-05-19 06:55:00,58.9,41.3,30.16,East,80,4.0,4.0,52,0.00,,,0.00,Wunderground v.1.13,2013-05-19 13:55:00,
2013-05-19 07:00:00,59.5,42.3,30.16,ENE,78,4.0,6.0,53,0.00,,,0.00,Wunderground v.1.13,2013-05-19 14:00:00,
2013-05-19 07:05:00,59.9,42.7,30.16,ENE,74,4.0,4.0,53,0.00,,,0.00,Wunderground v.1.13,2013-05-19 14:05:00,
2013-05-19 07:15:00,60.7,41.4,30.17,East,88,4.0,4.0,49,0.00,,,0.00,Wunderground v.1.13,2013-05-19 14:15:00,
2013-05-19 07:20:00,61.0,42.2,30.17,East,84,4.0,4.0,50,0.00,,,0.00,Wunderground v.1.13,2013-05-19 14:20:00,
2013-05-19 07:30:00,61.5,42.7,30.17,East,82,4.0,4.0,50,0.00,,,0.00,Wunderground v.1.13,2013-05-19 14:30:00,
2013-05-19 07:40:00,62.7,42.7,30.16,East,86,4.0,4.0,48,0.00,,,0.00,Wunderground v.1.13,2013-05-19 14:40:00,
2013-05-19 07:50:00,63.9,43.3,30.16,ENE,78,3.0,5.0,47,0.00,,,0.00,Wunderground v.1.13,2013-05-19 14:50:00,
2013-05-19 08:00:00,65.2,42.1,30.16,East,86,3.0,4.0,43,0.00,,,0.00,Wunderground v.1.13,2013-05-19 15:00:00,
2013-05-19 08:10:00,66.4,42.6,30.16,ENE,71,3.0,3.0,42,0.00,,,0.00,Wunderground v.1.13,2013-05-19 15:10:00,
2013-05-19 08:15:00,67.1,44.4,30.17,East,86,3.0,3.0,44,0.00,,,0.00,Wunderground v.1.13,2013-05-19 15:15:00,
2013-05-19 08:20:00,67.6,43.1,30.16,East,85,3.0,4.0,41,0.00,,,0.00,Wunderground v.1.13,2013-05-19 15:20:00,
2013-05-19 08:30:00,68.6,41.3,30.16,NE,52,1.0,1.0,37,0.00,,,0.00,Wunderground v.1.13,2013-05-19 15:30:00,
2013-05-19 08:40:00,69.6,42.9,30.16,East,81,2.0,3.0,38,0.00,,,0.00,Wunderground v.1.13,2013-05-19 15:40:00,
2013-05-19 08:45:00,70.4,46.2,30.15,East,91,1.0,4.0,42,0.00,,,0.00,Wunderground v.1.13,2013-05-19 15:45:00,
2013-05-19 08:55:00,71.5,40.1,30.16,NE,36,1.0,1.0,32,0.00,,,0.00,Wunderground v.1.13,2013-05-19 15:55:00,
2013-05-19 09:05:00,72.3,40.8,30.15,East,83,1.0,4.0,32,0.00,,,0.00,Wunderground v.1.13,2013-05-19 16:05:00,
2013-05-19 09:10:00,73.0,40.6,30.15,ENE,69,1.0,1.0,31,0.00,,,0.00,Wunderground v.1.13,2013-05-19 16:10:00,
2013-05-19 09:20:00,73.7,43.6,30.15,ENE,76,1.0,1.0,34,0.00,,,0.00,Wunderground v.1.13,2013-05-19 16:20:00,
2013-05-19 09:25:00,74.2,43.2,30.15,East,80,1.0,1.0,33,0.00,,,0.00,Wunderground v.1.13,2013-05-19 16:25:00,
2013-05-19 09:30:00,74.6,39.3,30.15,East,82,1.0,5.0,28,0.00,,,0.00,Wunderground v.1.13,2013-05-19 16:30:00,
2013-05-19 09:40:00,74.7,40.3,30.14,East,82,0.0,3.0,29,0.00,,,0.00,Wunderground v.1.13,2013-05-19 16:40:00,
2013-05-19 09:50:00,75.6,40.2,30.14,East,82,0.0,3.0,28,0.00,,,0.00,Wunderground v.1.13,2013-05-19 16:50:00,
2013-05-19 09:55:00,76.1,39.7,30.14,East,82,0.0,3.0,27,0.00,,,0.00,Wunderground v.1.13,2013-05-19 16:55:00,
2013-05-19 10:05:00,76.7,38.2,30.14,West,270,0.0,3.0,25,0.00,,,0.00,Wunderground v.1.13,2013-05-19 17:05:00,
2013-05-19 10:15:00,76.5,41.9,30.14,West,275,1.0,3.0,29,0.00,,,0.00,Wunderground v.1.13,2013-05-19 17:15:00,
2013-05-19 10:20:00,76.1,43.3,30.14,West,265,1.0,1.0,31,0.00,,,0.00,Wunderground v.1.13,2013-05-19 17:20:00,
2013-05-19 10:30:00,75.1,44.0,30.14,West,277,2.0,2.0,33,0.00,,,0.00,Wunderground v.1.13,2013-05-19 17:30:00,
2013-05-19 10:35:00,74.9,45.4,30.14,West,281,2.0,2.0,35,0.00,,,0.00,Wunderground v.1.13,2013-05-19 17:35:00,
2013-05-19 10:45:00,75.1,45.6,30.14,WSW,257,1.0,1.0,35,0.00,,,0.00,Wunderground v.1.13,2013-05-19 17:45:00,
2013-05-19 10:55:00,75.4,44.3,30.14,West,271,1.0,1.0,33,0.00,,,0.00,Wunderground v.1.13,2013-05-19 17:55:00,
2013-05-19 11:05:00,75.6,42.8,30.14,WSW,254,2.0,3.0,31,0.00,,,0.00,Wunderground v.1.13,2013-05-19 18:05:00,
2013-05-19 11:10:00,75.4,45.8,30.14,NW,315,2.0,2.0,35,0.00,,,0.00,Wunderground v.1.13,2013-05-19 18:10:00,
2013-05-19 11:20:00,76.0,43.2,30.14,West,268,1.0,3.0,31,0.00,,,0.00,Wunderground v.1.13,2013-05-19 18:20:00,
2013-05-19 11:25:00,76.0,44.0,30.14,West,275,1.0,5.0,32,0.00,,,0.00,Wunderground v.1.13,2013-05-19 18:25:00,
2013-05-19 11:30:00,75.8,46.9,30.13,West,271,2.0,3.0,36,0.00,,,0.00,Wunderground v.1.13,2013-05-19 18:30:00,
2013-05-19 11:40:00,76.1,42.4,30.14,West,273,3.0,3.0,30,0.00,,,0.00,Wunderground v.1.13,2013-05-19 18:40:00,
2013-05-19 11:45:00,76.3,44.3,30.14,West,276,3.0,3.0,32,0.00,,,0.00,Wunderground v.1.13,2013-05-19 18:45:00,
2013-05-19 11:55:00,76.7,43.8,30.13,West,274,2.0,5.0,31,0.00,,,0.00,Wunderground v.1.13,2013-05-19 18:55:00,
2013-05-19 12:00:00,76.5,43.6,30.13,East,94,4.0,4.0,31,0.00,,,0.00,Wunderground v.1.13,2013-05-19 19:00:00,
2013-05-19 12:10:00,76.5,44.4,30.13,WSW,250,3.0,3.0,32,0.00,,,0.00,Wunderground v.1.13,2013-05-19 19:10:00,
2013-05-19 12:20:00,76.8,43.9,30.13,West,273,3.0,5.0,31,0.00,,,0.00,Wunderground v.1.13,2013-05-19 19:20:00,
2013-05-19 12:30:00,76.7,43.8,30.13,ENE,69,4.0,4.0,31,0.00,,,0.00,Wunderground v.1.13,2013-05-19 19:30:00,
2013-05-19 12:40:00,77.0,44.0,30.13,West,281,3.0,4.0,31,0.00,,,0.00,Wunderground v.1.13,2013-05-19 19:40:00,
2013-05-19 12:45:00,76.8,43.9,30.12,WNW,298,3.0,5.0,31,0.00,,,0.00,Wunderground v.1.13,2013-05-19 19:45:00,
2013-05-19 12:55:00,77.4,44.4,30.12,WNW,288,3.0,3.0,31,0.00,,,0.00,Wunderground v.1.13,2013-05-19 19:55:00,
2013-05-19 13:00:00,77.7,42.0,30.12,West,260,2.0,2.0,28,0.00,,,0.00,Wunderground v.1.13,2013-05-19 20:00:00,
2013-05-19 13:05:00,78.1,43.2,30.12,West,268,2.0,3.0,29,0.00,,,0.00,Wunderground v.1.13,2013-05-19 20:05:00,
2013-05-19 13:15:00,78.8,42.9,30.11,NW,313,2.0,7.0,28,0.00,,,0.00,Wunderground v.1.13,2013-05-19 20:15:00,
2013-05-19 13:20:00,78.8,42.9,30.11,NNW,332,2.0,2.0,28,0.00,,,0.00,Wunderground v.1.13,2013-05-19 20:20:00,
2013-05-19 13:30:00,78.6,42.8,30.11,West,265,4.0,4.0,28,0.00,,,0.00,Wunderground v.1.13,2013-05-19 20:30:00,
2013-05-19 13:35:00,78.6,42.8,30.11,WSW,257,4.0,6.0,28,0.00,,,0.00,Wunderground v.1.13,2013-05-19 20:35:00,
2013-05-19 13:40:00,78.6,43.7,30.10,WNW,286,4.0,9.0,29,0.00,,,0.00,Wunderground v.1.13,2013-05-19 20:40:00,
2013-05-19 13:50:00,78.8,43.8,30.10,WNW,295,4.0,15.0,29,0.00,,,0.00,Wunderground v.1.13,2013-05-19 20:50:00,
2013-05-19 13:55:00,78.8,42.9,30.10,WSW,245,4.0,4.0,28,0.00,,,0.00,Wunderground v.1.13,2013-05-19 20:55:00,
2013-05-19 14:05:00,78.8,42.0,30.10,WNW,294,4.0,4.0,27,0.00,,,0.00,Wunderground v.1.13,2013-05-19 21:05:00,
2013-05-19 14:15:00,79.9,42.9,30.10,NW,320,2.0,2.0,27,0.00,,,0.00,Wunderground v.1.13,2013-05-19 21:15:00,
2013-05-19 14:25:00,79.8,42.8,30.10,SW,226,3.0,3.0,27,0.00,,,0.00,Wunderground v.1.13,2013-05-19 21:25:00,
2013-05-19 14:30:00,79.8,43.8,30.10,West,266,3.0,15.0,28,0.00,,,0.00,Wunderground v.1.13,2013-05-19 21:30:00,
2013-05-19 14:35:00,79.6,43.6,30.10,WSW,251,4.0,15.0,28,0.00,,,0.00,Wunderground v.1.13,2013-05-19 21:35:00,
2013-05-19 14:40:00,79.6,43.6,30.09,West,270,4.0,15.0,28,0.00,,,0.00,Wunderground v.1.13,2013-05-19 21:40:00,
2013-05-19 14:50:00,79.6,42.7,30.09,SE,129,4.0,4.0,27,0.00,,,0.00,Wunderground v.1.13,2013-05-19 21:50:00,
2013-05-19 15:00:00,80.7,42.6,30.09,WNW,287,2.0,15.0,26,0.00,,,0.00,Wunderground v.1.13,2013-05-19 22:00:00,
2013-05-19 15:10:00,80.9,42.8,30.09,West,275,4.0,15.0,26,0.00,,,0.00,Wunderground v.1.13,2013-05-19 22:10:00,
2013-05-19 15:15:00,80.9,42.8,30.09,SW,227,4.0,4.0,26,0.00,,,0.00,Wunderground v.1.13,2013-05-19 22:15:00,
2013-05-19 15:25:00,80.7,41.6,30.09,West,276,4.0,15.0,25,0.00,,,0.00,Wunderground v.1.13,2013-05-19 22:25:00,
2013-05-19 15:35:00,80.5,42.4,30.09,West,279,4.0,15.0,26,0.00,,,0.00,Wunderground v.1.13,2013-05-19 22:35:00,
2013-05-19 15:40:00,80.5,42.4,30.09,West,267,4.0,15.0,26,0.00,,,0.00,Wunderground v.1.13,2013-05-19 22:40:00,
2013-05-19 15:45:00,80.5,42.4,30.09,NW,321,4.0,15.0,26,0.00,,,0.00,Wunderground v.1.13,2013-05-19 22:45:00,
2013-05-19 15:55:00,80.7,42.6,30.09,NNW,327,3.0,3.0,26,0.00,,,0.00,Wunderground v.1.13,2013-05-19 22:55:00,
2013-05-19 16:00:00,80.7,41.6,30.09,SE,143,3.0,3.0,25,0.00,,,0.00,Wunderground v.1.13,2013-05-19 23:00:00,
2013-05-19 16:10:00,80.5,42.4,30.08,West,267,3.0,3.0,26,0.00,,,0.00,Wunderground v.1.13,2013-05-19 23:10:00,
2013-05-19 16:15:00,80.3,42.3,30.09,WNW,289,4.0,15.0,26,0.00,,,0.00,Wunderground v.1.13,2013-05-19 23:15:00,
2013-05-19 16:25:00,79.9,42.9,30.08,NW,320,2.0,2.0,27,0.00,,,0.00,Wunderground v.1.13,2013-05-19 23:25:00,
2013-05-19 16:35:00,80.3,42.3,30.08,West,265,2.0,15.0,26,0.00,,,0.00,Wunderground v.1.13,2013-05-19 23:35:00,
2013-05-19 16:40:00,79.9,42.9,30.08,NW,312,2.0,2.0,27,0.00,,,0.00,Wunderground v.1.13,2013-05-19 23:40:00,
2013-05-19 16:50:00,79.6,41.7,30.08,West,273,2.0,2.0,26,0.00,,,0.00,Wunderground v.1.13,2013-05-19 23:50:00,
2013-05-19 16:55:00,79.4,41.5,30.08,WNW,294,3.0,15.0,26,0.00,,,0.00,Wunderground v.1.13,2013-05-19 23:55:00,
2013-05-19 17:05:00,79.0,41.2,30.08,West,269,3.0,15.0,26,0.00,,,0.00,Wunderground v.1.13,2013-05-20 00:05:00,
2013-05-19 17:10:00,79.2,42.3,30.07,NE,45,3.0,3.0,27,0.00,,,0.00,Wunderground v.1.13,2013-05-20 00:10:00,
2013-05-19 17:20:00,78.6,41.8,30.07,WSW,257,2.0,15.0,27,0.00,,,0.00,Wunderground v.1.13,2013-05-20 00:20:00,
2013-05-19 17:25:00,78.3,41.6,30.07,WNW,287,3.0,3.0,27,0.00,,,0.00,Wunderground v.1.13,2013-05-20 00:25:00,
2013-05-19 17:35:00,78.1,42.3,30.07,NW,306,2.0,15.0,28,0.00,,,0.00,Wunderground v.1.13,2013-05-20 00:35:00,
2013-05-19 17:40:00,77.9,41.2,30.07,West,267,2.0,2.0,27,0.00,,,0.00,Wunderground v.1.13,2013-05-20 00:40:00,
2013-05-19 17:45:00,77.9,42.2,30.06,NNW,339,3.0,15.0,28,0.00,,,0.00,Wunderground v.1.13,2013-05-20 00:45:00,
2013-05-19 17:55:00,77.9,40.2,30.06,West,278,2.0,15.0,26,0.00,,,0.00,Wunderground v.1.13,2013-05-20 00:55:00,
2013-05-19 18:05:00,77.7,41.0,30.06,WSW,254,3.0,15.0,27,0.00,,,0.00,Wunderground v.1.13,2013-05-20 01:05:00,
2013-05-19 18:15:00,77.4,40.8,30.05,West,269,3.0,15.0,27,0.00,,,0.00,Wunderground v.1.13,2013-05-20 01:15:00,
2013-05-19 18:25:00,77.2,40.6,30.05,West,277,1.0,15.0,27,0.00,,,0.00,Wunderground v.1.13,2013-05-20 01:25:00,
2013-05-19 18:35:00,76.7,41.1,30.05,NW,320,2.0,2.0,28,0.00,,,0.00,Wunderground v.1.13,2013-05-20 01:35:00,
2013-05-19 18:45:00,76.0,40.5,30.05,WNW,296,1.0,1.0,28,0.00,,,0.00,Wunderground v.1.13,2013-05-20 01:45:00,
2013-05-19 18:55:00,75.1,39.8,30.05,WNW,284,1.0,15.0,28,0.00,,,0.00,Wunderground v.1.13,2013-05-20 01:55:00,
2013-05-19 19:00:00,74.7,40.3,30.05,NW,307,1.0,15.0,29,0.00,,,0.00,Wunderground v.1.13,2013-05-20 02:00:00,
2013-05-19 19:05:00,74.2,39.9,30.05,WSW,251,1.0,15.0,29,0.00,,,0.00,Wunderground v.1.13,2013-05-20 02:05:00,
2013-05-19 19:15:00,73.5,40.2,30.04,WNW,298,1.0,1.0,30,0.00,,,0.00,Wunderground v.1.13,2013-05-20 02:15:00,
2013-05-19 19:25:00,73.0,40.6,30.04,NNW,340,1.0,1.0,31,0.00,,,0.00,Wunderground v.1.13,2013-05-20 02:25:00,
2013-05-19 19:35:00,72.3,40.0,30.05,NNE,16,1.0,1.0,31,0.00,,,0.00,Wunderground v.1.13,2013-05-20 02:35:00,
2013-05-19 19:40:00,72.0,40.5,30.05,NNE,24,0.0,15.0,32,0.00,,,0.00,Wunderground v.1.13,2013-05-20 02:40:00,
2013-05-19 19:50:00,71.3,39.9,30.05,West,281,0.0,15.0,32,0.00,,,0.00,Wunderground v.1.13,2013-05-20 02:50:00,
2013-05-19 19:55:00,70.9,39.6,30.05,NW,308,0.0,15.0,32,0.00,,,0.00,Wunderground v.1.13,2013-05-20 02:55:00,
2013-05-19 20:05:00,70.4,39.9,30.06,NW,316,0.0,15.0,33,0.00,,,0.00,Wunderground v.1.13,2013-05-20 03:05:00,
2013-05-19 20:14:00,69.9,39.5,30.06,NW,316,0.0,15.0,33,0.00,,,0.00,Wunderground v.1.13,2013-05-20 03:14:00,
2013-05-19 20:20:00,69.6,39.2,30.04,NW,316,0.0,15.0,33,0.00,,,0.00,Wunderground v.1.13,2013-05-20 03:20:00,
2013-05-19 20:25:00,69.3,38.9,30.05,NW,316,0.0,15.0,33,0.00,,,0.00,Wunderground v.1.13,2013-05-20 03:25:00,
2013-05-19 20:35:00,68.8,39.3,30.05,NW,316,0.0,15.0,34,0.00,,,0.00,Wunderground v.1.13,2013-05-20 03:35:00,
2013-05-19 20:40:00,68.4,38.9,30.05,North,5,0.0,15.0,34,0.00,,,0.00,Wunderground v.1.13,2013-05-20 03:40:00,
2013-05-19 20:50:00,67.8,39.1,30.05,North,355,0.0,15.0,35,0.00,,,0.00,Wunderground v.1.13,2013-05-20 03:50:00,
2013-05-19 21:00:00,67.4,38.0,30.05,North,355,2.0,15.0,34,0.00,,,0.00,Wunderground v.1.13,2013-05-20 04:00:00,
2013-05-19 21:05:00,67.3,38.0,30.05,NE,40,3.0,15.0,34,0.00,,,0.00,Wunderground v.1.13,2013-05-20 04:05:00,
2013-05-19 21:10:00,67.3,38.0,30.05,NNE,13,3.0,15.0,34,0.00,,,0.00,Wunderground v.1.13,2013-05-20 04:10:00,
2013-05-19 21:15:00,67.4,37.3,30.05,NNE,18,2.0,15.0,33,0.00,,,0.00,Wunderground v.1.13,2013-05-20 04:15:00,
2013-05-19 21:20:00,67.6,37.5,30.04,North,360,3.0,15.0,33,0.00,,,0.00,Wunderground v.1.13,2013-05-20 04:20:00,
2013-05-19 21:30:00,67.8,37.6,30.05,North,355,3.0,15.0,33,0.00,,,0.00,Wunderground v.1.13,2013-05-20 04:30:00,
2013-05-19 21:40:00,67.9,36.1,30.05,ENE,61,3.0,3.0,31,0.00,,,0.00,Wunderground v.1.13,2013-05-20 04:40:00,
2013-05-19 21:45:00,67.9,35.3,30.05,ENE,63,3.0,3.0,30,0.00,,,0.00,Wunderground v.1.13,2013-05-20 04:45:00,
2013-05-19 21:55:00,68.1,31.9,30.05,NE,42,4.0,15.0,26,0.00,,,0.00,Wunderground v.1.13,2013-05-20 04:55:00,
2013-05-19 22:00:00,68.3,31.1,30.05,NE,51,3.0,15.0,25,0.00,,,0.00,Wunderground v.1.13,2013-05-20 05:00:00,
2013-05-19 22:10:00,68.6,30.3,30.05,ENE,65,2.0,2.0,24,0.00,,,0.00,Wunderground v.1.13,2013-05-20 05:10:00,
2013-05-19 22:15:00,68.6,30.3,30.06,NE,45,1.0,15.0,24,0.00,,,0.00,Wunderground v.1.13,2013-05-20 05:15:00,
2013-05-19 22:25:00,68.4,30.2,30.06,NE,53,1.0,15.0,24,0.00,,,0.00,Wunderground v.1.13,2013-05-20 05:25:00,
2013-05-19 22:35:00,68.1,29.9,30.06,ENE,59,2.0,15.0,24,0.00,,,0.00,Wunderground v.1.13,2013-05-20 05:35:00,
2013-05-19 22:40:00,67.9,28.7,30.06,ENE,59,2.0,2.0,23,0.00,,,0.00,Wunderground v.1.13,2013-05-20 05:40:00,
2013-05-19 22:50:00,67.9,28.7,30.06,NE,48,2.0,2.0,23,0.00,,,0.00,Wunderground v.1.13,2013-05-20 05:50:00,
2013-05-19 23:00:00,67.9,28.7,30.05,NE,53,1.0,1.0,23,0.00,,,0.00,Wunderground v.1.13,2013-05-20 06:00:00,
2013-05-19 23:10:00,67.9,28.7,30.06,NE,51,1.0,1.0,23,0.00,,,0.00,Wunderground v.1.13,2013-05-20 06:10:00,
2013-05-19 23:20:00,67.8,28.6,30.06,NE,39,1.0,15.0,23,0.00,,,0.00,Wunderground v.1.13,2013-05-20 06:20:00,
2013-05-19 23:25:00,67.6,27.4,30.06,ENE,68,1.0,1.0,22,0.00,,,0.00,Wunderground v.1.13,2013-05-20 06:25:00,
2013-05-19 23:30:00,67.4,28.3,30.06,NE,50,1.0,1.0,23,0.00,,,0.00,Wunderground v.1.13,2013-05-20 06:30:00,
2013-05-19 23:39:00,67.3,27.1,30.05,NE,50,1.0,15.0,22,0.00,,,0.00,Wunderground v.1.13,2013-05-20 06:39:00,
2013-05-19 23:45:00,67.1,28.0,30.05,ENE,58,1.0,15.0,23,0.00,,,0.00,Wunderground v.1.13,2013-05-20 06:45:00,
2013-05-19 23:50:00,66.9,27.9,30.05,ENE,66,1.0,1.0,23,0.00,,,0.00,Wunderground v.1.13,2013-05-20 06:50:00,
2013-05-19 23:55:00,66.8,27.8,30.05,ENE,69,1.0,1.0,23,0.00,,,0.00,Wunderground v.1.13,2013-05-20 06:55:00,